,,Stat6,,Stat2,,Stat8,,Stat9,,Stat10,,Wind1,,Wind1,
time,status,PA1M_AVG,status,PR1M_SUM,status,RH1M_AVG,status,SR1M_AVG,status,TA1M_AVG,status,W1dAve1m,status,W1sAve1m,
2003-10-13, 00:00:00,VALID,918.892,VALID,0,VALID,99.7205,VALID,-0.0169808,VALID,19.068,VALID,334,VALID,0,
2003-10-13, 00:01:00,VALID,918.884,VALID,0,VALID,99.7319,VALID,0,VALID,19.0749,VALID,334,VALID,0,
2003-10-13, 00:02:00,VALID,918.889,VALID,0,VALID,99.7714,VALID,0,VALID,19.0779,VALID,334,VALID,0,
2003-10-13, 00:03:00,VALID,918.88,VALID,0,VALID,99.7688,VALID,-0.0169808,VALID,19.0749,VALID,334,VALID,0,
2003-10-13, 00:04:00,VALID,918.886,VALID,0,VALID,99.826,VALID,0,VALID,19.0712,VALID,334,VALID,0.00800305,
2003-10-13, 00:05:00,VALID,918.87,VALID,0,VALID,99.84,VALID,0,VALID,19.0779,VALID,334,VALID,0,
2003-10-13, 00:06:00,VALID,918.865,VALID,0,VALID,99.8299,VALID,-0.0169808,VALID,19.0583,VALID,334,VALID,0,
2003-10-13, 00:07:00,VALID,918.847,VALID,0,VALID,99.868,VALID,0,VALID,19.0717,VALID,334,VALID,0,
2003-10-13, 00:08:00,VALID,918.842,VALID,0,VALID,99.9049,VALID,-0.0169808,VALID,19.0809,VALID,334,VALID,0,
2003-10-13, 00:09:00,VALID,918.828,VALID,0,VALID,99.9023,VALID,-0.0169808,VALID,19.0617,VALID,334,VALID,0,
2003-10-13, 00:10:00,VALID,918.812,VALID,0,VALID,99.9341,VALID,-0.0169808,VALID,19.0784,VALID,334,VALID,0.0491319,
2003-10-13, 00:11:00,VALID,918.804,VALID,0,VALID,99.9621,VALID,0,VALID,19.0843,VALID,334,VALID,0.0369665,
2003-10-13, 00:12:00,VALID,918.806,VALID,0,VALID,99.9672,VALID,0,VALID,19.0873,VALID,344,VALID,0.225836,
2003-10-13, 00:13:00,VALID,918.792,VALID,0,VALID,99.9835,VALID,0,VALID,19.0908,VALID,357,VALID,0.298399,
2003-10-13, 00:14:00,VALID,918.778,VALID,0,VALID,99.988,VALID,-0.0169808,VALID,19.0975,VALID,357,VALID,0.118459,
2003-10-13, 00:15:00,VALID,918.76,VALID,0,VALID,99.998,VALID,0,VALID,19.0873,VALID,357,VALID,0.0766859,
2003-10-13, 00:16:00,VALID,918.745,VALID,0,VALID,99.999,VALID,-0.0169808,VALID,19.0915,VALID,358,VALID,0.201349,
2003-10-13, 00:17:00,VALID,918.734,VALID,0,VALID,100,VALID,-0.0169808,VALID,19.1042,VALID,360,VALID,0.378906,
2003-10-13, 00:18:00,VALID,918.716,VALID,0,VALID,100,VALID,0,VALID,19.1007,VALID,357,VALID,0.498365,
2003-10-13, 00:19:00,VALID,918.711,VALID,0,VALID,100,VALID,0,VALID,19.0873,VALID,349,VALID,0.381037,
2003-10-13, 00:20:00,VALID,918.695,VALID,0,VALID,100,VALID,0,VALID,19.0841,VALID,352,VALID,0.446801,
2003-10-13, 00:21:00,VALID,918.686,VALID,0,VALID,100,VALID,0.0169808,VALID,19.0871,VALID,360,VALID,0.67309,
2003-10-13, 00:22:00,VALID,918.673,VALID,0,VALID,99.999,VALID,0,VALID,19.0714,VALID,9,VALID,0.838542,
2003-10-13, 00:23:00,VALID,918.659,VALID,0,VALID,100,VALID,0,VALID,19.0419,VALID,360,VALID,0.494665,
2003-10-13, 00:24:00,VALID,918.644,VALID,0,VALID,99.9947,VALID,0,VALID,19.0331,VALID,359,VALID,0.515434,
2003-10-13, 00:25:00,VALID,918.639,VALID,0,VALID,100,VALID,-0.0169808,VALID,19.0257,VALID,2,VALID,0.332933,
2003-10-13, 00:26:00,VALID,918.64,VALID,0,VALID,99.998,VALID,-0.0169808,VALID,19.0294,VALID,360,VALID,0.519176,
2003-10-13, 00:27:00,VALID,918.638,VALID,0,VALID,99.9957,VALID,0,VALID,19.0232,VALID,349,VALID,0.817454,
2003-10-13, 00:28:00,VALID,918.623,VALID,0,VALID,99.9786,VALID,0,VALID,18.9937,VALID,342,VALID,0.725291,
2003-10-13, 00:29:00,VALID,918.619,VALID,0,VALID,99.9659,VALID,-0.0339617,VALID,18.9741,VALID,342,VALID,0.753516,
2003-10-13, 00:30:00,VALID,918.611,VALID,0,VALID,99.957,VALID,-0.0169808,VALID,18.9614,VALID,339,VALID,0.898983,
2003-10-13, 00:31:00,VALID,918.577,VALID,0,VALID,99.9672,VALID,0,VALID,18.9485,VALID,4,VALID,0.90554,
2003-10-13, 00:32:00,VALID,918.584,VALID,0,VALID,99.9954,VALID,0,VALID,18.9649,VALID,9,VALID,1.10292,
2003-10-13, 00:33:00,VALID,918.556,VALID,0,VALID,100,VALID,0.0169808,VALID,18.9713,VALID,360,VALID,1.2349,
2003-10-13, 00:34:00,VALID,918.549,VALID,0,VALID,99.9924,VALID,0.0509425,VALID,18.9544,VALID,1,VALID,1.14676,
2003-10-13, 00:35:00,VALID,918.537,VALID,0,VALID,99.9896,VALID,0.0339617,VALID,18.9649,VALID,336,VALID,0.569931,
2003-10-13, 00:36:00,VALID,918.511,VALID,0,VALID,99.9819,VALID,0.0169808,VALID,18.9646,VALID,300,VALID,0.39755,
2003-10-13, 00:37:00,VALID,918.498,VALID,0,VALID,99.9735,VALID,0.0339617,VALID,18.9549,VALID,237,VALID,0.114583,
2003-10-13, 00:38:00,VALID,918.487,VALID,0,VALID,99.9685,VALID,0,VALID,18.9582,VALID,249,VALID,0.120617,
2003-10-13, 00:39:00,VALID,918.476,VALID,0,VALID,99.9797,VALID,0.0339617,VALID,18.9711,VALID,2,VALID,0.703125,
2003-10-13, 00:40:00,VALID,918.45,VALID,0,VALID,99.998,VALID,0.0169808,VALID,18.9907,VALID,15,VALID,0.868945,
2003-10-13, 00:41:00,VALID,918.428,VALID,0,VALID,99.9967,VALID,0.0339617,VALID,18.9771,VALID,360,VALID,0.798473,
2003-10-13, 00:42:00,VALID,918.424,VALID,0,VALID,99.9957,VALID,0,VALID,18.9808,VALID,359,VALID,0.680043,
2003-10-13, 00:43:00,VALID,918.403,VALID,0,VALID,99.999,VALID,0.0339617,VALID,18.9738,VALID,345,VALID,0.198918,
2003-10-13, 00:44:00,VALID,918.4,VALID,0,VALID,99.9977,VALID,0.0679233,VALID,18.9803,VALID,342,VALID,0.45277,
2003-10-13, 00:45:00,VALID,918.37,VALID,0,VALID,100,VALID,0.0339617,VALID,18.9842,VALID,360,VALID,0.499609,
2003-10-13, 00:46:00,VALID,918.36,VALID,0,VALID,100,VALID,0,VALID,18.9932,VALID,2,VALID,0.495617,
2003-10-13, 00:47:00,VALID,918.358,VALID,0,VALID,100,VALID,0.0509425,VALID,19.0195,VALID,4,VALID,0.363542,
2003-10-13, 00:48:00,VALID,918.351,VALID,0,VALID,100,VALID,0.0169808,VALID,19.026,VALID,4,VALID,0.422408,
2003-10-13, 00:49:00,VALID,918.348,VALID,0,VALID,100,VALID,-0.0679233,VALID,19.0431,VALID,6,VALID,0.475731,
2003-10-13, 00:50:00,VALID,918.33,VALID,0,VALID,100,VALID,-0.0169808,VALID,19.0465,VALID,10,VALID,0.0953947,
2003-10-13, 00:51:00,VALID,918.327,VALID,0,VALID,100,VALID,-0.0509425,VALID,19.0364,VALID,10,VALID,0.077753,
2003-10-13, 00:52:00,VALID,918.314,VALID,0,VALID,100,VALID,-0.0509425,VALID,19.0468,VALID,10,VALID,0.0635653,
2003-10-13, 00:53:00,VALID,918.29,VALID,0,VALID,100,VALID,-0.0679233,VALID,19.0369,VALID,10,VALID,0.394354,
2003-10-13, 00:54:00,VALID,918.277,VALID,0,VALID,100,VALID,-0.0679233,VALID,19.0498,VALID,10,VALID,0.318314,
2003-10-13, 00:55:00,VALID,918.27,VALID,0,VALID,100,VALID,-0.0679233,VALID,19.0366,VALID,10,VALID,0.216025,
2003-10-13, 00:56:00,VALID,918.249,VALID,0,VALID,100,VALID,-0.0679233,VALID,19.0334,VALID,10,VALID,0.0388889,
2003-10-13, 00:57:00,VALID,918.235,VALID,0,VALID,100,VALID,-0.0679233,VALID,19.0306,VALID,25,VALID,0.208891,
2003-10-13, 00:58:00,VALID,918.232,VALID,0.2,VALID,100,VALID,-0.101885,VALID,18.9986,VALID,354,VALID,0.237165,
2003-10-13, 00:59:00,VALID,918.23,VALID,0,VALID,100,VALID,-0.0679233,VALID,18.9951,VALID,351,VALID,0.035061,
2003-10-13, 01:00:00,VALID,918.228,VALID,0,VALID,100,VALID,-0.0849042,VALID,19.0018,VALID,351,VALID,0,
2003-10-13, 01:01:00,VALID,918.205,VALID,0,VALID,100,VALID,-0.101885,VALID,19.005,VALID,333,VALID,0.24707,
2003-10-13, 01:02:00,VALID,918.187,VALID,0,VALID,100,VALID,-0.101885,VALID,18.9852,VALID,341,VALID,0.288352,
2003-10-13, 01:03:00,VALID,918.184,VALID,0,VALID,100,VALID,-0.0679233,VALID,18.9981,VALID,350,VALID,0.252232,
2003-10-13, 01:04:00,VALID,918.17,VALID,0,VALID,100,VALID,0.0169808,VALID,19.0068,VALID,354,VALID,0.369792,
2003-10-13, 01:05:00,VALID,918.153,VALID,0,VALID,100,VALID,0.0169808,VALID,18.9967,VALID,11,VALID,0.616655,
2003-10-13, 01:06:00,VALID,918.147,VALID,0,VALID,100,VALID,0.0339617,VALID,19.0031,VALID,26,VALID,0.489099,
2003-10-13, 01:07:00,VALID,918.131,VALID,0,VALID,100,VALID,0.0169808,VALID,18.9937,VALID,16,VALID,0.369731,
2003-10-13, 01:08:00,VALID,918.122,VALID,0,VALID,100,VALID,0.0339617,VALID,19.0101,VALID,6,VALID,0.353338,
2003-10-13, 01:09:00,VALID,918.109,VALID,0,VALID,100,VALID,0.0169808,VALID,19.0029,VALID,7,VALID,0.404204,
2003-10-13, 01:10:00,VALID,918.079,VALID,0,VALID,100,VALID,0.0169808,VALID,19.0101,VALID,4,VALID,0.355755,
2003-10-13, 01:11:00,VALID,918.068,VALID,0,VALID,100,VALID,0.0339617,VALID,19.0292,VALID,4,VALID,0.292668,
2003-10-13, 01:12:00,VALID,918.046,VALID,0,VALID,100,VALID,0.0169808,VALID,19.0491,VALID,7,VALID,0.290777,
2003-10-13, 01:13:00,VALID,918.037,VALID,0,VALID,100,VALID,0.0339617,VALID,19.0449,VALID,12,VALID,0.694767,
2003-10-13, 01:14:00,VALID,918.017,VALID,0,VALID,100,VALID,0.0169808,VALID,19.0416,VALID,12,VALID,0.36471,
2003-10-13, 01:15:00,VALID,918.006,VALID,0,VALID,100,VALID,0.0169808,VALID,19.0424,VALID,12,VALID,0.285065,
2003-10-13, 01:16:00,VALID,917.988,VALID,0,VALID,100,VALID,0.0169808,VALID,19.0456,VALID,13,VALID,0.454901,
2003-10-13, 01:17:00,VALID,917.969,VALID,0,VALID,100,VALID,0.0339617,VALID,19.0585,VALID,13,VALID,0.0474201,
2003-10-13, 01:18:00,VALID,917.972,VALID,0,VALID,100,VALID,0,VALID,19.055,VALID,13,VALID,0.0352471,
2003-10-13, 01:19:00,VALID,917.958,VALID,0,VALID,100,VALID,0.0169808,VALID,19.0677,VALID,11,VALID,0.158612,
2003-10-13, 01:20:00,VALID,917.939,VALID,0,VALID,100,VALID,0,VALID,19.0712,VALID,22,VALID,0.377544,
2003-10-13, 01:21:00,VALID,917.926,VALID,0,VALID,100,VALID,0.0339617,VALID,19.0684,VALID,21,VALID,0.812305,
2003-10-13, 01:22:00,VALID,917.93,VALID,0,VALID,100,VALID,0,VALID,19.0421,VALID,19,VALID,0.682664,
2003-10-13, 01:23:00,VALID,917.913,VALID,0,VALID,100,VALID,0.0339617,VALID,19.0255,VALID,16,VALID,0.339367,
2003-10-13, 01:24:00,VALID,917.91,VALID,0,VALID,100,VALID,0.0169808,VALID,19.016,VALID,18,VALID,0.254794,
2003-10-13, 01:25:00,VALID,917.913,VALID,0,VALID,100,VALID,0,VALID,19.0004,VALID,17,VALID,0.0102896,
2003-10-13, 01:26:00,VALID,917.918,VALID,0,VALID,100,VALID,0.0169808,VALID,19.0004,VALID,14,VALID,0.284489,
2003-10-13, 01:27:00,VALID,917.899,VALID,0,VALID,100,VALID,0.0169808,VALID,19.0031,VALID,15,VALID,0.747569,
2003-10-13, 01:28:00,VALID,917.893,VALID,0,VALID,100,VALID,0.0169808,VALID,19.016,VALID,19,VALID,0.963663,
2003-10-13, 01:29:00,VALID,917.88,VALID,0,VALID,100,VALID,0.0169808,VALID,19.0396,VALID,21,VALID,1.10193,
2003-10-13, 01:30:00,VALID,917.883,VALID,0,VALID,100,VALID,0,VALID,19.026,VALID,26,VALID,1.1144,
2003-10-13, 01:31:00,VALID,917.866,VALID,0,VALID,100,VALID,0.0169808,VALID,19.0093,VALID,21,VALID,1.18299,
2003-10-13, 01:32:00,VALID,917.859,VALID,0,VALID,100,VALID,0,VALID,19.0359,VALID,21,VALID,1.08975,
2003-10-13, 01:33:00,VALID,917.863,VALID,0,VALID,100,VALID,0,VALID,19.026,VALID,17,VALID,0.789063,
2003-10-13, 01:34:00,VALID,917.853,VALID,0,VALID,100,VALID,0.0339617,VALID,19.0424,VALID,22,VALID,0.72433,
2003-10-13, 01:35:00,VALID,917.847,VALID,0,VALID,100,VALID,0.0339617,VALID,19.026,VALID,24,VALID,0.942522,
2003-10-13, 01:36:00,VALID,917.842,VALID,0,VALID,100,VALID,0.0169808,VALID,19.0031,VALID,17,VALID,0.838956,
2003-10-13, 01:37:00,VALID,917.826,VALID,0,VALID,100,VALID,0.0169808,VALID,19.0068,VALID,16,VALID,0.65554,
2003-10-13, 01:38:00,VALID,917.817,VALID,0,VALID,100,VALID,0,VALID,18.9904,VALID,19,VALID,0.945694,
2003-10-13, 01:39:00,VALID,917.813,VALID,0,VALID,100,VALID,0.0169808,VALID,18.99,VALID,23,VALID,1.05164,
2003-10-13, 01:40:00,VALID,917.805,VALID,0,VALID,100,VALID,0,VALID,18.9971,VALID,19,VALID,0.98316,
2003-10-13, 01:41:00,VALID,917.801,VALID,0,VALID,100,VALID,0,VALID,18.9969,VALID,20,VALID,0.978849,
2003-10-13, 01:42:00,VALID,917.799,VALID,0,VALID,100,VALID,0.0169808,VALID,19.0004,VALID,23,VALID,1.08467,
2003-10-13, 01:43:00,VALID,917.788,VALID,0,VALID,100,VALID,0.0339617,VALID,19.0096,VALID,21,VALID,1.02143,
2003-10-13, 01:44:00,VALID,917.787,VALID,0,VALID,100,VALID,0.0509425,VALID,19.0093,VALID,19,VALID,0.906064,
2003-10-13, 01:45:00,VALID,917.795,VALID,0,VALID,100,VALID,0,VALID,19.0064,VALID,18,VALID,0.566679,
2003-10-13, 01:46:00,VALID,917.787,VALID,0,VALID,100,VALID,0.0339617,VALID,19.0029,VALID,28,VALID,0.894077,
2003-10-13, 01:47:00,VALID,917.772,VALID,0,VALID,100,VALID,0,VALID,19.0223,VALID,19,VALID,0.562691,
2003-10-13, 01:48:00,VALID,917.774,VALID,0,VALID,100,VALID,0.0169808,VALID,19.026,VALID,13,VALID,0.392857,
2003-10-13, 01:49:00,VALID,917.767,VALID,0,VALID,100,VALID,-0.0509425,VALID,19.0373,VALID,18,VALID,0.668501,
2003-10-13, 01:50:00,VALID,917.767,VALID,0,VALID,100,VALID,-0.0849042,VALID,19.0369,VALID,20,VALID,1.01897,
2003-10-13, 01:51:00,VALID,917.758,VALID,0,VALID,100,VALID,-0.0509425,VALID,19.0431,VALID,23,VALID,0.782315,
2003-10-13, 01:52:00,VALID,917.775,VALID,0,VALID,100,VALID,-0.0849042,VALID,19.0463,VALID,26,VALID,0.553779,
2003-10-13, 01:53:00,VALID,917.772,VALID,0,VALID,100,VALID,-0.0509425,VALID,19.0431,VALID,26,VALID,0.326029,
2003-10-13, 01:54:00,VALID,917.753,VALID,0,VALID,100,VALID,-0.0849042,VALID,19.0599,VALID,26,VALID,0.317522,
2003-10-13, 01:55:00,VALID,917.744,VALID,0,VALID,100,VALID,-0.0679233,VALID,19.0528,VALID,25,VALID,0.421181,
2003-10-13, 01:56:00,VALID,917.73,VALID,0,VALID,100,VALID,-0.0679233,VALID,19.0592,VALID,25,VALID,0.325457,
2003-10-13, 01:57:00,VALID,917.707,VALID,0,VALID,100,VALID,-0.101885,VALID,19.0528,VALID,25,VALID,0.379861,
2003-10-13, 01:58:00,VALID,917.698,VALID,0,VALID,100,VALID,-0.101885,VALID,19.0505,VALID,8,VALID,0.100991,
2003-10-13, 01:59:00,VALID,917.684,VALID,0,VALID,100,VALID,-0.0679233,VALID,19.0431,VALID,5,VALID,0.114644,
2003-10-13, 02:00:00,VALID,917.658,VALID,0,VALID,100,VALID,-0.0509425,VALID,19.0279,VALID,350,VALID,0.519626,
2003-10-13, 02:01:00,VALID,917.661,VALID,0,VALID,100,VALID,-0.0849042,VALID,18.9882,VALID,15,VALID,0.241071,
2003-10-13, 02:02:00,VALID,917.649,VALID,0,VALID,100,VALID,-0.0509425,VALID,18.9884,VALID,15,VALID,0.00999273,
2003-10-13, 02:03:00,VALID,917.629,VALID,0,VALID,100,VALID,-0.0849042,VALID,18.9976,VALID,15,VALID,0,
2003-10-13, 02:04:00,VALID,917.613,VALID,0,VALID,100,VALID,-0.0849042,VALID,18.9916,VALID,15,VALID,0.00090843,
2003-10-13, 02:05:00,VALID,917.591,VALID,0,VALID,100,VALID,-0.101885,VALID,18.9849,VALID,3,VALID,0.160342,
2003-10-13, 02:06:00,VALID,917.579,VALID,0,VALID,100,VALID,-0.0339617,VALID,18.9946,VALID,28,VALID,0.513719,
2003-10-13, 02:07:00,VALID,917.573,VALID,0,VALID,100,VALID,-0.0849042,VALID,19.0043,VALID,18,VALID,0.692264,
2003-10-13, 02:08:00,VALID,917.552,VALID,0,VALID,100,VALID,-0.0679233,VALID,19.0237,VALID,10,VALID,0.436012,
2003-10-13, 02:09:00,VALID,917.545,VALID,0,VALID,100,VALID,-0.0679233,VALID,19.0237,VALID,8,VALID,0.470238,
2003-10-13, 02:10:00,VALID,917.528,VALID,0,VALID,100,VALID,-0.0849042,VALID,19.0371,VALID,12,VALID,0.373047,
2003-10-13, 02:11:00,VALID,917.53,VALID,0,VALID,100,VALID,-0.0849042,VALID,19.0272,VALID,12,VALID,0.131098,
2003-10-13, 02:12:00,VALID,917.506,VALID,0,VALID,100,VALID,-0.0849042,VALID,19.0269,VALID,12,VALID,0.220348,
2003-10-13, 02:13:00,VALID,917.489,VALID,0,VALID,100,VALID,-0.101885,VALID,19.0537,VALID,20,VALID,0.707403,
2003-10-13, 02:14:00,VALID,917.44,VALID,0,VALID,100,VALID,-0.0849042,VALID,19.0369,VALID,19,VALID,0.914807,
2003-10-13, 02:15:00,VALID,917.436,VALID,0,VALID,100,VALID,-0.101885,VALID,19.0304,VALID,17,VALID,0.895275,
2003-10-13, 02:16:00,VALID,917.408,VALID,0,VALID,100,VALID,-0.101885,VALID,19.0175,VALID,15,VALID,1.23692,
2003-10-13, 02:17:00,VALID,917.392,VALID,0,VALID,100,VALID,-0.101885,VALID,18.9983,VALID,13,VALID,1.06669,
2003-10-13, 02:18:00,VALID,917.373,VALID,0,VALID,100,VALID,-0.0849042,VALID,18.9981,VALID,17,VALID,0.980114,
2003-10-13, 02:19:00,VALID,917.347,VALID,0,VALID,100,VALID,0,VALID,19.0029,VALID,21,VALID,0.673147,
2003-10-13, 02:20:00,VALID,917.332,VALID,0,VALID,100,VALID,0.0169808,VALID,18.9967,VALID,23,VALID,0.590376,
2003-10-13, 02:21:00,VALID,917.3,VALID,0,VALID,100,VALID,0.0339617,VALID,18.9835,VALID,25,VALID,1.01474,
2003-10-13, 02:22:00,VALID,917.29,VALID,0,VALID,100,VALID,0,VALID,18.9904,VALID,18,VALID,1.37046,
2003-10-13, 02:23:00,VALID,917.263,VALID,0,VALID,100,VALID,0.0339617,VALID,18.9646,VALID,16,VALID,0.978906,
2003-10-13, 02:24:00,VALID,917.255,VALID,0,VALID,100,VALID,0,VALID,18.9584,VALID,19,VALID,1.25604,
2003-10-13, 02:25:00,VALID,917.245,VALID,0,VALID,100,VALID,0.0169808,VALID,18.9418,VALID,21,VALID,1.15934,
2003-10-13, 02:26:00,VALID,917.236,VALID,0,VALID,100,VALID,0,VALID,18.9353,VALID,19,VALID,1.05729,
2003-10-13, 02:27:00,VALID,917.242,VALID,0,VALID,100,VALID,0.0339617,VALID,18.9478,VALID,24,VALID,1.11649,
2003-10-13, 02:28:00,VALID,917.228,VALID,0,VALID,100,VALID,0.0339617,VALID,18.9515,VALID,18,VALID,1.28316,
2003-10-13, 02:29:00,VALID,917.223,VALID,0,VALID,100,VALID,0.0169808,VALID,18.9577,VALID,20,VALID,1.48095,
2003-10-13, 02:30:00,VALID,917.232,VALID,0,VALID,100,VALID,0.0339617,VALID,18.9515,VALID,14,VALID,1.32358,
2003-10-13, 02:31:00,VALID,917.236,VALID,0,VALID,100,VALID,0.0509425,VALID,18.9482,VALID,26,VALID,1.39807,
2003-10-13, 02:32:00,VALID,917.24,VALID,0,VALID,100,VALID,0.0169808,VALID,18.9385,VALID,22,VALID,1.52001,
2003-10-13, 02:33:00,VALID,917.224,VALID,0,VALID,100,VALID,-0.0169808,VALID,18.9455,VALID,21,VALID,1.43623,
2003-10-13, 02:34:00,VALID,917.22,VALID,0,VALID,100,VALID,-0.0849042,VALID,18.9467,VALID,15,VALID,0.966704,
2003-10-13, 02:35:00,VALID,917.207,VALID,0,VALID,100,VALID,-0.0509425,VALID,18.9566,VALID,17,VALID,0.923971,
2003-10-13, 02:36:00,VALID,917.205,VALID,0,VALID,100,VALID,-0.101885,VALID,18.9271,VALID,23,VALID,1.17383,
2003-10-13, 02:37:00,VALID,917.187,VALID,0,VALID,100,VALID,-0.118866,VALID,18.9375,VALID,21,VALID,0.948047,
2003-10-13, 02:38:00,VALID,917.181,VALID,0,VALID,100,VALID,-0.101885,VALID,18.9141,VALID,23,VALID,1.08085,
2003-10-13, 02:39:00,VALID,917.17,VALID,0,VALID,100,VALID,-0.101885,VALID,18.9181,VALID,19,VALID,1.06836,
2003-10-13, 02:40:00,VALID,917.18,VALID,0,VALID,100,VALID,-0.118866,VALID,18.8948,VALID,21,VALID,0.825036,
2003-10-13, 02:41:00,VALID,917.162,VALID,0,VALID,100,VALID,-0.118866,VALID,18.9082,VALID,22,VALID,0.77439,
2003-10-13, 02:42:00,VALID,917.151,VALID,0,VALID,100,VALID,-0.0849042,VALID,18.9042,VALID,22,VALID,0.915923,
2003-10-13, 02:43:00,VALID,917.151,VALID,0,VALID,100,VALID,-0.118866,VALID,18.9077,VALID,2,VALID,0.750558,
2003-10-13, 02:44:00,VALID,917.149,VALID,0,VALID,100,VALID,-0.152827,VALID,18.8952,VALID,3,VALID,0.456032,
2003-10-13, 02:45:00,VALID,917.142,VALID,0,VALID,100,VALID,-0.101885,VALID,18.9178,VALID,33,VALID,0.559048,
2003-10-13, 02:46:00,VALID,917.139,VALID,0,VALID,100,VALID,-0.101885,VALID,18.9141,VALID,32,VALID,0.267442,
2003-10-13, 02:47:00,VALID,917.132,VALID,0,VALID,100,VALID,-0.101885,VALID,18.9211,VALID,161,VALID,0.494141,
2003-10-13, 02:48:00,VALID,917.113,VALID,0,VALID,100,VALID,-0.0849042,VALID,18.898,VALID,170,VALID,0.596912,
2003-10-13, 02:49:00,VALID,917.114,VALID,0,VALID,100,VALID,0,VALID,18.8878,VALID,175,VALID,0.77567,
2003-10-13, 02:50:00,VALID,917.108,VALID,0,VALID,99.999,VALID,0,VALID,18.8645,VALID,181,VALID,0.361632,
2003-10-13, 02:51:00,VALID,917.082,VALID,0,VALID,99.999,VALID,0,VALID,18.8645,VALID,181,VALID,0,
2003-10-13, 02:52:00,VALID,917.075,VALID,0,VALID,99.998,VALID,0,VALID,18.8747,VALID,181,VALID,0.0136265,
2003-10-13, 02:53:00,VALID,917.071,VALID,0,VALID,99.9931,VALID,0,VALID,18.8682,VALID,216,VALID,0.472942,
2003-10-13, 02:54:00,VALID,917.054,VALID,0,VALID,99.9896,VALID,0,VALID,18.8551,VALID,227,VALID,0.214844,
2003-10-13, 02:55:00,VALID,917.045,VALID,0,VALID,100,VALID,0,VALID,18.8543,VALID,354,VALID,0.504192,
2003-10-13, 02:56:00,VALID,917.038,VALID,0,VALID,100,VALID,0,VALID,18.8714,VALID,2,VALID,0.702195,
2003-10-13, 02:57:00,VALID,917.025,VALID,0,VALID,99.9898,VALID,-0.0169808,VALID,18.8781,VALID,11,VALID,1.07603,
2003-10-13, 02:58:00,VALID,917.051,VALID,0,VALID,99.999,VALID,0,VALID,18.8943,VALID,15,VALID,0.686133,
2003-10-13, 02:59:00,VALID,917.057,VALID,0,VALID,100,VALID,0,VALID,18.907,VALID,12,VALID,0.50372,
2003-10-13, 03:00:00,VALID,917.048,VALID,0,VALID,99.999,VALID,0,VALID,18.9164,VALID,29,VALID,0.521532,
2003-10-13, 03:01:00,VALID,917.042,VALID,0,VALID,99.9896,VALID,0,VALID,18.9393,VALID,4,VALID,0.596294,
2003-10-13, 03:02:00,VALID,917.036,VALID,0,VALID,99.9873,VALID,-0.0169808,VALID,18.9556,VALID,3,VALID,0.293968,
2003-10-13, 03:03:00,VALID,917.029,VALID,0,VALID,99.9468,VALID,0,VALID,18.9586,VALID,7,VALID,0.138081,
2003-10-13, 03:04:00,VALID,917.045,VALID,0,VALID,99.9341,VALID,-0.0339617,VALID,18.9584,VALID,7,VALID,0.0601918,
2003-10-13, 03:05:00,VALID,917.037,VALID,0,VALID,99.9112,VALID,0,VALID,18.9554,VALID,7,VALID,0.127477,
2003-10-13, 03:06:00,VALID,917.017,VALID,0,VALID,99.8871,VALID,0,VALID,18.9678,VALID,7,VALID,0.0948933,
2003-10-13, 03:07:00,VALID,917.008,VALID,0,VALID,99.8744,VALID,-0.0169808,VALID,18.9785,VALID,7,VALID,0,
2003-10-13, 03:08:00,VALID,917.017,VALID,0,VALID,99.8871,VALID,0,VALID,18.9971,VALID,7,VALID,0.120908,
2003-10-13, 03:09:00,VALID,917.012,VALID,0,VALID,99.9036,VALID,0,VALID,19.02,VALID,23,VALID,0.820845,
2003-10-13, 03:10:00,VALID,916.999,VALID,0,VALID,99.8845,VALID,-0.0169808,VALID,19.0232,VALID,11,VALID,0.545387,
2003-10-13, 03:11:00,VALID,916.995,VALID,0,VALID,99.8871,VALID,0,VALID,19.0193,VALID,13,VALID,0.602653,
2003-10-13, 03:12:00,VALID,916.973,VALID,0,VALID,99.8616,VALID,0,VALID,19.0133,VALID,32,VALID,0.576601,
2003-10-13, 03:13:00,VALID,917.002,VALID,0,VALID,99.8337,VALID,0,VALID,19.0061,VALID,297,VALID,0.566134,
2003-10-13, 03:14:00,VALID,916.999,VALID,0,VALID,99.7854,VALID,0,VALID,19.0038,VALID,223,VALID,0.983803,
2003-10-13, 03:15:00,VALID,916.975,VALID,0,VALID,99.7218,VALID,0.0169808,VALID,18.9676,VALID,218,VALID,0.814904,
2003-10-13, 03:16:00,VALID,916.958,VALID,0,VALID,99.7485,VALID,0,VALID,18.9584,VALID,262,VALID,0.913491,
2003-10-13, 03:17:00,VALID,916.97,VALID,0,VALID,99.8286,VALID,0,VALID,18.978,VALID,353,VALID,0.665039,
2003-10-13, 03:18:00,VALID,916.984,VALID,0,VALID,99.9507,VALID,-0.0169808,VALID,19.0165,VALID,8,VALID,0.447266,
2003-10-13, 03:19:00,VALID,916.978,VALID,0,VALID,99.9723,VALID,0,VALID,19.0396,VALID,10,VALID,0.320313,
2003-10-13, 03:20:00,VALID,916.97,VALID,0,VALID,99.9761,VALID,0,VALID,19.0354,VALID,12,VALID,0.084409,
2003-10-13, 03:21:00,VALID,916.945,VALID,0,VALID,99.9659,VALID,0,VALID,19.0456,VALID,18,VALID,0.12718,
2003-10-13, 03:22:00,VALID,916.956,VALID,0,VALID,99.9545,VALID,0.0169808,VALID,19.0324,VALID,63,VALID,0.314236,
2003-10-13, 03:23:00,VALID,916.919,VALID,0,VALID,99.9812,VALID,0,VALID,19.0421,VALID,28,VALID,0.7498,
2003-10-13, 03:24:00,VALID,916.901,VALID,0,VALID,99.9809,VALID,0.0169808,VALID,19.0456,VALID,149,VALID,0.292614,
2003-10-13, 03:25:00,VALID,916.913,VALID,0,VALID,99.9494,VALID,0,VALID,19.0327,VALID,163,VALID,0.139881,
2003-10-13, 03:26:00,VALID,916.906,VALID,0,VALID,99.9685,VALID,0.0339617,VALID,19.0386,VALID,38,VALID,0.415698,
2003-10-13, 03:27:00,VALID,916.891,VALID,0,VALID,99.9931,VALID,0.0169808,VALID,19.0587,VALID,37,VALID,0.627604,
2003-10-13, 03:28:00,VALID,916.896,VALID,0,VALID,99.999,VALID,0.0169808,VALID,19.0613,VALID,105,VALID,0.388148,
2003-10-13, 03:29:00,VALID,916.903,VALID,0,VALID,100,VALID,0,VALID,19.0647,VALID,121,VALID,0.475632,
2003-10-13, 03:30:00,VALID,916.9,VALID,0,VALID,99.999,VALID,0,VALID,19.0654,VALID,29,VALID,0.915451,
2003-10-13, 03:31:00,VALID,916.879,VALID,0,VALID,99.9797,VALID,0,VALID,19.0391,VALID,303,VALID,1.06615,
2003-10-13, 03:32:00,VALID,916.881,VALID,0,VALID,99.9278,VALID,0.0169808,VALID,19.0093,VALID,3,VALID,1.20258,
2003-10-13, 03:33:00,VALID,916.875,VALID,0,VALID,99.9481,VALID,0,VALID,19.0126,VALID,305,VALID,1.19074,
2003-10-13, 03:34:00,VALID,916.862,VALID,0,VALID,99.9685,VALID,-0.0339617,VALID,19.0172,VALID,22,VALID,1.80323,
2003-10-13, 03:35:00,VALID,916.88,VALID,0,VALID,99.9967,VALID,0,VALID,19.0297,VALID,13,VALID,1.2619,
2003-10-13, 03:36:00,VALID,916.872,VALID,0,VALID,100,VALID,-0.0509425,VALID,19.0463,VALID,52,VALID,0.600991,
2003-10-13, 03:37:00,VALID,916.879,VALID,0,VALID,100,VALID,-0.0679233,VALID,19.0431,VALID,332,VALID,1.08418,
2003-10-13, 03:38:00,VALID,916.88,VALID,0,VALID,100,VALID,-0.0679233,VALID,19.0269,VALID,218,VALID,0.348157,
2003-10-13, 03:39:00,VALID,916.879,VALID,0,VALID,99.998,VALID,-0.0679233,VALID,19.0207,VALID,165,VALID,0.328311,
2003-10-13, 03:40:00,VALID,916.884,VALID,0,VALID,99.998,VALID,-0.0169808,VALID,19.0108,VALID,14,VALID,0.66276,
2003-10-13, 03:41:00,VALID,916.881,VALID,0,VALID,100,VALID,-0.0339617,VALID,19.0138,VALID,54,VALID,0.772294,
2003-10-13, 03:42:00,VALID,916.903,VALID,0,VALID,99.998,VALID,-0.0339617,VALID,19.0142,VALID,157,VALID,0.554883,